Find Starlink 37592

NORAD ID: 69025 Int'l Des: 2026-101 Owner: SPXS Country: US Constellation: starlink operational
LEOCIRCULARRETROGRADE

現在のビュー

3D地球を読み込み中...

About Starlink 37592

Starlink 37592 (NORAD 69025) is a starlink constellation satellite (v2 mini) launched May 6, 2026 by SPXS of US. It operates in LEO, CIRCULAR, RETROGRADE orbit with a mass of 575.00 kg.

次回通過

Passes for default location (London). Set your location on the main map for personalized predictions.

高度履歴

Loading altitude history...

軌道要素

1 69025U 26101A 26235.03958719 .00014560 00000-0 45238-3 0 9993
2 69025 97.2857 88.8744 0001096 93.7705 266.3663 15.33450155 16818
Epoch: Aug 23, 2026 • Age: 28 hours

現在のステータス

高度 475.6 km
遠地点 / 近地点 N/A
速度 7.63 km/s
衛星直下点 -26.07°S, 45.71°E
打ち上げ日 May 6, 2026
運用期間 0.3 years
タイプ internet

技術仕様

分類 Payload
質量 575.00 kg
乾燥質量 530.00 kg
総質量 575.00 kg
長さ 0.30 m
直径 4.10 m
スパン 29.00 m
形状 Box + pan
製造者 SPXS
バスタイプ Starlink V2MO
フェーズステータス In Orbit
所有者/国 SPXS/US

Most Searched